Torna al catalogo

CZ-6A DEB

AttivoPO
NORAD 61345·DEBRIS·🇨🇳 China

Lanciato Aug 6, 2024 da Taiyuan Satellite Launch Center

Loading…

Prossimi Passaggi (prossime 24 ore)

TLE

AggiornatoSource: Space-Track

Epoca: Sep 14, 2026, 09:19 UTC

1 61345U 24140VJ  26257.38823421  .00001333  00000-0  34022-3 0  9997
2 61345  88.6462 227.5472 0106710 276.2454  82.6604 14.46624938107022

Traccia CZ-6A DEB in tempo reale con AllMySat

Download on the App Store